Regional Weather Roundup
Issued by NWS

Home | Current Version | Previous Version | Text Only | Print | Product List | Glossary On
Versions: 1 2 3 4 5 6 7 8 9 10 11 12 13 14 15 16 17 18 19 20 21 22 23 24 25 26 27 28 29 30 31 32 33 34 35 36 37 38 39 40 41 42 43 44 45 46 47 48 49 50
000
ASUS43 KLMK 231302
RWRKY
KENTUCKY REGIONAL WEATHER ROUNDUP
NATIONAL WEATHER SERVICE LOUISVILLE KY
900 AM EDT SAT AUG 23 2014

NOTE "FAIR" INDICATES FEW OR NO CLOUDS BELOW 12,000 FEET
WITH NO SIGNIFICANT WEATHER AND/OR OBSTRUCTIONS TO VISIBILITY.

KYZ001>023-026-027-061>063-070>075-231400-
WESTERN AND SOUTH CENTRAL KENTUCKY

CITY           SKY/WX    TMP DP  RH WIND       PRES   REMARKS
PADUCAH        PTSUNNY   80  75  84 SW5       29.97S
HENDERSON      MOSUNNY   79  72  78 S8        29.96R
OWENSBORO      PTSUNNY   76  74  93 S5        29.98S
HOPKINSVILLE   CLOUDY    75  75 100 SW6       30.01R
BOWLING GREEN  MOSUNNY   76  70  82 S5        30.02R
GLASGOW        PTSUNNY   77  72  84 CALM      30.02S
$$

KYZ024-025-028>034-038-045-046-053-231400-
NORTH CENTRAL KENTUCKY

CITY           SKY/WX    TMP DP  RH WIND       PRES   REMARKS
LOUISVILLE/SDF MOSUNNY   76  72  87 SE3       29.99S
LOUISVILLE/LOU SUNNY     75  72  90 S3        30.00F
FORT KNOX      MOSUNNY   74  71  88 S1        30.00S
$$

KYZ035>037-039>044-047>052-055>060-089>105-231400-
NORTHEAST KENTUCKY

CITY           SKY/WX    TMP DP  RH WIND       PRES   REMARKS
LEXINGTON      SUNNY     76  71  85 CALM      30.03S
COVINGTON      MOSUNNY   78  73  84 CALM      30.02R
FRANKFORT      MOSUNNY   73  71  93 SW3       30.01S
$$

KYZ054-064>069-076>088-106>120-231400-
SOUTHEAST KENTUCKY

CITY           SKY/WX    TMP DP  RH WIND       PRES   REMARKS
JACKSON        FOG       71  69  93 CALM      30.04S VSB 1/4
LONDON         PTSUNNY   76  71  85 CALM      30.05S
SOMERSET       PTSUNNY   73  73 100 CALM      30.05S
MIDDLESBORO    SUNNY     75  72  89 CALM      30.05S
MONTICELLO     FOG       76  74  93 CALM      30.05F VSB 3/4
$$



USA.gov is the U.S. government's official web portal to all federal, state and local government web resources and services.